Location: ?????
(31.7405°N, 35.1927°E)
Time: 22:57:31
(UTC+00:00)

H-2A R/B - Pass Details

Date: 17 February 2020
Orbit: 503 x 540 km, 97.3° (Epoch: 28 February)

Event Time Altitude Azimuth Distance (km) Brightness Sun altitude
Rises 03:24:04 0° 18° (NNE) 2,630 6.4 -12.5°
Reaches altitude 10° 03:26:14 10° 24° (NNE) 1,734 5.6 -12.1°
Maximum altitude 03:29:51 47° 99° (E) 681 3.8 -11.3°
Drops below altitude 10° 03:33:24 10° 174° (S) 1,708 5.5 -10.6°
Sets 03:35:31 0° 180° (S) 2,586 6.4 -10.1°
